GW0263 Weather Reports


time (UTC)temp
F
wind
direction
speed
knots
gust
knots
rain 1hr
in
rain 24hr
in
rain mn
in
humidity
%
barometer
mb
20260504034541 50 0 0.0 0.0 0.00 0.00 0.00 69 1019.7
20260504033034 51 0 0.0 0.0 0.00 0.00 0.00 65 1019.7
20260504031542 51 0 0.0 0.0 0.00 0.00 0.00 62 1019.6
20260504030039 51 0 0.0 0.0 0.00 0.00 0.00 63 1019.6
20260504024530 52 0 0.0 0.0 0.00 0.00 0.00 64 1019.4
20260504023036 53 0 0.0 0.0 0.00 0.00 0.00 57 1019.3
20260504021532 54 0 0.0 0.0 0.00 0.00 0.00 55 1019.2
20260504020035 54 0 0.0 0.0 0.00 0.00 0.00 57 1019.1
20260504014533 55 0 0.0 0.0 0.00 0.00 0.00 53 1019.0
20260504013032 56 0 0.0 0.0 0.00 0.00 0.00 54 1018.9
20260504011530 57 0 0.0 0.0 0.00 0.00 0.00 53 1018.5
20260504010038 58 0 0.0 0.0 0.00 0.00 0.00 49 1018.4
20260504004532 59 0 0.0 0.0 0.00 0.00 0.00 45 1018.3
20260504003031 60 0 0.0 0.0 0.00 0.00 0.00 44 1018.2
20260504001530 61 0 0.0 0.0 0.00 0.00 0.00 43 1018.1
20260504000031 62 0 0.0 0.0 0.00 0.00 0.00 41 1018.1
20260503234533 63 0 0.0 0.0 0.00 0.00 0.00 41 1017.9
20260503233029 63 0 0.0 0.0 0.00 0.00 0.00 40 1017.9
20260503231543 64 0 0.0 0.0 0.00 0.00 0.00 38 1017.9
20260503230033 65 0 0.0 0.0 0.00 0.00 0.00 36 1017.8
20260503224532 66 0 0.0 0.0 0.00 0.00 0.00 32 1017.9
20260503223033 67 0 0.0 0.0 0.00 0.00 0.00 30 1018.1
20260503221536 68 0 0.0 0.0 0.00 0.00 0.00 29 1018.1
20260503220037 69 0 0.0 0.0 0.00 0.00 0.00 27 1018.1
20260503214541 70 0 0.0 0.0 0.00 0.00 0.00 27 1018.0
20260503213051 71 0 0.0 0.0 0.00 0.00 0.00 28 1018.1
20260503211538 72 0 0.0 0.0 0.00 0.00 0.00 28 1018.2
20260503210035 73 0 0.0 0.0 0.00 0.00 0.00 29 1018.4
20260503204549 74 0 0.0 0.0 0.00 0.00 0.00 28 1018.4
20260503203035 74 0 0.0 0.0 0.00 0.00 0.00 27 1018.6
20260503201534 74 0 0.0 0.0 0.00 0.00 0.00 27 1018.8
20260503200030 73 0 0.0 0.0 0.00 0.00 0.00 29 1019.0
20260503194531 74 0 0.0 0.0 0.00 0.00 0.00 30 1019.4
20260503193032 73 0 0.0 0.0 0.00 0.00 0.00 28 1019.6
20260503191539 72 0 0.0 0.0 0.00 0.00 0.00 27 1019.9
20260503190034 72 0 0.0 0.0 0.00 0.00 0.00 25 1020.0
20260503184535 72 0 0.0 0.0 0.00 0.00 0.00 31 1020.2
20260503183042 71 0 0.0 0.0 0.00 0.00 0.00 27 1020.3
20260503181532 70 0 0.0 0.0 0.00 0.00 0.00 30 1020.4
20260503180035 70 0 0.0 0.0 0.00 0.00 0.00 34 1020.7
20260503174538 69 0 0.0 0.0 0.00 0.00 0.00 32 1020.7
20260503173032 68 0 0.0 0.0 0.00 0.00 0.00 35 1020.8
20260503171535 68 0 0.0 0.0 0.00 0.00 0.00 34 1021.1
20260503081544 37 0 0.0 0.0 0.00 0.00 0.00 89 1019.6
20260503071551 38 0 0.0 0.0 0.00 0.00 0.00 88 1019.0
20260503054545 40 0 0.0 0.0 0.00 0.00 0.00 87 1019.2
20260503053034 41 0 0.0 0.0 0.00 0.00 0.00 86 1019.2
20260503051542 41 0 0.0 0.0 0.00 0.00 0.00 85 1019.1
20260503050030 42 0 0.0 0.0 0.00 0.00 0.00 84 1019.1
20260503044530 42 0 0.0 0.0 0.00 0.00 0.00 84 1019.1
20260503043030 42 0 0.0 0.0 0.00 0.00 0.00 83 1019.0
20260503041533 43 0 0.0 0.0 0.00 0.00 0.00 82 1018.7
20260503040035 44 0 0.0 0.0 0.00 0.00 0.00 81 1018.7